Location: Gradaro
(45.0833°N, 10.8833°E)
Time: 21:42:28
(UTC+00:00)

USA 306 - Pass Details

Date: 29 November 2020
Orbit: 568 x 576 km, 54.0° (Epoch: 11 January)

Event Time Altitude Azimuth Distance (km) Brightness Sun altitude
Exits shadow 05:48:21 - 311° (NW) 1,992 5.1 -7.8°
Reaches altitude 10° 05:48:38 10° 312° (NW) 1,891 5.0 -7.8°
Maximum altitude 05:52:38 36° 20° (NNE) 919 3.9 -7.1°
Drops below altitude 10° 05:56:38 10° 89° (E) 1,888 6.8 -6.5°
Sets 05:59:01 0° 98° (E) 2,785 8.2 -6.1°
